| time (UTC) | temp F | wind direction | speed MPH | gust MPH | rain 1hr in | rain 24hr in | rain mn in | humidity % | barometer mb |
| 20260510111506 | 41 | 254 | 0.0 | 0.0 | 0.00 | 0.00 | 0.00 | 86 | 1018.4 |
| 20260510110009 | 41 | 254 | 0.0 | 0.0 | 0.00 | 0.08 | 0.00 | 85 | 1018.3 |
| 20260510104501 | 42 | 254 | 0.0 | 0.0 | 0.00 | 0.08 | 0.00 | 84 | 1018.3 |
| 20260510103110 | 42 | 254 | 0.0 | 0.0 | 0.00 | 0.08 | 0.00 | 84 | 1018.3 |
| 20260510101557 | 42 | 254 | 0.0 | 0.0 | 0.00 | 0.08 | 0.00 | 84 | 1018.2 |
| 20260510100057 | 43 | 254 | 0.0 | 0.0 | 0.00 | 0.08 | 0.00 | 82 | 1018.1 |
| 20260510094554 | 43 | 254 | 0.0 | 0.0 | 0.00 | 0.08 | 0.00 | 81 | 1017.8 |
| 20260510093103 | 44 | 254 | 0.0 | 0.0 | 0.00 | 0.08 | 0.00 | 82 | 1017.8 |
| 20260510091532 | 44 | 254 | 0.0 | 0.0 | 0.00 | 0.08 | 0.00 | 82 | 1017.6 |
| 20260510090043 | 44 | 254 | 0.0 | 0.0 | 0.00 | 0.08 | 0.00 | 81 | 1017.6 |
| 20260510084521 | 45 | 254 | 0.0 | 0.0 | 0.00 | 0.08 | 0.00 | 80 | 1017.7 |
| 20260510083014 | 45 | 254 | 0.0 | 0.0 | 0.00 | 0.08 | 0.00 | 78 | 1017.7 |
| 20260510081511 | 46 | 254 | 0.0 | 0.0 | 0.00 | 0.08 | 0.00 | 77 | 1017.5 |
| 20260510080007 | 47 | 254 | 0.0 | 0.0 | 0.00 | 0.08 | 0.00 | 75 | 1017.3 |
| 20260510074504 | 48 | 254 | 0.0 | 0.0 | 0.00 | 0.08 | 0.00 | 74 | 1017.2 |
| 20260510073003 | 48 | 254 | 0.0 | 0.0 | 0.00 | 0.08 | 0.00 | 73 | 1017.2 |
| 20260510071600 | 49 | 255 | 0.0 | 0.0 | 0.00 | 0.08 | 0.00 | 72 | 1017.1 |
| 20260510070058 | 49 | 255 | 0.0 | 3.0 | 0.00 | 0.08 | 0.00 | 71 | 1017.0 |
| 20260510064556 | 50 | 246 | 0.0 | 1.0 | 0.00 | 0.08 | 0.00 | 70 | 1016.9 |
| 20260510063039 | 50 | 246 | 0.0 | 4.0 | 0.00 | 0.08 | 0.00 | 68 | 1016.7 |
| 20260510061537 | 51 | 242 | 0.0 | 2.0 | 0.00 | 0.08 | 0.00 | 69 | 1016.6 |
| 20260510060035 | 51 | 252 | 0.0 | 5.0 | 0.00 | 0.08 | 0.00 | 68 | 1016.5 |
| 20260510054531 | 53 | 244 | 0.0 | 0.0 | 0.00 | 0.08 | 0.00 | 65 | 1016.3 |
| 20260510053028 | 53 | 246 | 0.0 | 0.0 | 0.00 | 0.08 | 0.00 | 62 | 1016.3 |
| 20260510051525 | 55 | 230 | 0.0 | 0.0 | 0.00 | 0.08 | 0.00 | 57 | 1016.1 |
| 20260510050022 | 56 | 219 | 0.0 | 0.0 | 0.00 | 0.08 | 0.00 | 52 | 1016.0 |
| 20260510044509 | 57 | 67 | 0.0 | 0.0 | 0.00 | 0.08 | 0.00 | 51 | 1015.7 |
| 20260510043014 | 57 | 65 | 0.0 | 1.0 | 0.00 | 0.08 | 0.00 | 51 | 1015.8 |
| 20260510041508 | 56 | 54 | 0.0 | 0.0 | 0.00 | 0.08 | 0.00 | 54 | 1015.8 |
| 20260510040010 | 56 | 54 | 0.0 | 0.0 | 0.00 | 0.08 | 0.00 | 56 | 1015.8 |
| 20260510034505 | 56 | 52 | 0.0 | 0.0 | 0.00 | 0.08 | 0.00 | 56 | 1015.5 |
| 20260510033002 | 57 | 63 | 0.0 | 6.0 | 0.00 | 0.08 | 0.00 | 56 | 1015.2 |
| 20260510031600 | 57 | 53 | 0.0 | 1.0 | 0.00 | 0.08 | 0.00 | 55 | 1015.1 |
| 20260510030057 | 57 | 102 | 0.0 | 0.0 | 0.00 | 0.08 | 0.00 | 55 | 1014.8 |
| 20260510024545 | 57 | 77 | 0.0 | 15.0 | 0.00 | 0.08 | 0.00 | 55 | 1014.5 |
| 20260510023045 | 58 | 50 | 0.0 | 7.0 | 0.00 | 0.08 | 0.00 | 55 | 1014.3 |
| 20260510021537 | 58 | 60 | 0.0 | 16.0 | 0.00 | 0.08 | 0.00 | 54 | 1014.0 |
| 20260510020035 | 59 | 53 | 9.0 | 17.0 | 0.00 | 0.08 | 0.00 | 55 | 1013.7 |
| 20260510014531 | 60 | 55 | 5.0 | 15.0 | 0.00 | 0.08 | 0.00 | 54 | 1013.5 |
| 20260510013027 | 61 | 58 | 8.0 | 20.0 | 0.00 | 0.08 | 0.00 | 50 | 1013.4 |
| 20260510011526 | 61 | 60 | 6.0 | 18.0 | 0.00 | 0.08 | 0.00 | 49 | 1013.2 |
| 20260510010024 | 62 | 53 | 0.0 | 4.0 | 0.00 | 0.08 | 0.00 | 46 | 1013.0 |
| 20260510004511 | 61 | 58 | 4.0 | 14.0 | 0.00 | 0.08 | 0.00 | 47 | 1012.9 |
| 20260510003021 | 61 | 85 | 3.0 | 14.0 | 0.00 | 0.08 | 0.00 | 48 | 1012.6 |
| 20260510001509 | 62 | 96 | 2.0 | 14.0 | 0.00 | 0.08 | 0.00 | 47 | 1012.5 |
| 20260510000008 | 61 | 66 | 0.0 | 16.0 | 0.00 | 0.08 | 0.00 | 48 | 1012.4 |
| 20260509234513 | 62 | 44 | 0.0 | 12.0 | 0.00 | 0.08 | 0.00 | 46 | 1012.5 |
| 20260509233015 | 62 | 47 | 0.0 | 11.0 | 0.00 | 0.08 | 0.00 | 45 | 1012.6 |
| 20260509231505 | 62 | 65 | 2.0 | 15.0 | 0.00 | 0.08 | 0.00 | 44 | 1012.6 |
| 20260509230005 | 62 | 42 | 7.0 | 18.0 | 0.00 | 0.08 | 0.00 | 43 | 1012.5 |
| 20260509224547 | 62 | 49 | 2.0 | 19.0 | 0.00 | 0.08 | 0.00 | 44 | 1012.4 |
| 20260509223045 | 63 | 20 | 9.0 | 15.0 | 0.00 | 0.08 | 0.00 | 43 | 1012.2 |
| 20260509221532 | 62 | 40 | 10.0 | 23.0 | 0.00 | 0.08 | 0.00 | 42 | 1012.1 |
| 20260509220031 | 62 | 36 | 13.0 | 23.0 | 0.00 | 0.08 | 0.00 | 41 | 1012.1 |
| 20260509214531 | 62 | 46 | 10.0 | 22.0 | 0.00 | 0.08 | 0.00 | 39 | 1012.1 |
| 20260509213028 | 63 | 55 | 1.0 | 16.0 | 0.00 | 0.08 | 0.00 | 36 | 1011.9 |
| 20260509211529 | 62 | 59 | 7.0 | 19.0 | 0.00 | 0.08 | 0.00 | 39 | 1012.1 |
| 20260509210022 | 60 | 58 | 15.0 | 28.0 | 0.00 | 0.08 | 0.08 | 43 | 1012.1 |
| 20260509204521 | 61 | 74 | 11.0 | 26.0 | 0.00 | 0.08 | 0.08 | 43 | 1012.3 |
| 20260509203024 | 61 | 64 | 14.0 | 22.0 | 0.00 | 0.08 | 0.08 | 44 | 1012.0 |
| 20260509201506 | 62 | 11 | 11.0 | 25.0 | 0.00 | 0.08 | 0.08 | 43 | 1011.8 |
| 20260509200006 | 62 | 360 | 5.0 | 21.0 | 0.00 | 0.08 | 0.08 | 41 | 1011.8 |
| 20260509194505 | 64 | 22 | 9.0 | 17.0 | 0.00 | 0.08 | 0.08 | 39 | 1011.4 |
| 20260509193004 | 66 | 57 | 3.0 | 16.0 | 0.00 | 0.08 | 0.08 | 39 | 1011.3 |
| 20260509191503 | 65 | 332 | 3.0 | 20.0 | 0.00 | 0.08 | 0.08 | 27 | 1011.1 |
| 20260509190003 | 66 | 333 | 0.0 | 20.0 | 0.00 | 0.08 | 0.08 | 29 | 1011.2 |
| 20260509184509 | 65 | 323 | 6.0 | 19.0 | 0.00 | 0.08 | 0.08 | 27 | 1011.3 |
| 20260509183002 | 63 | 5 | 1.0 | 17.0 | 0.00 | 0.08 | 0.08 | 31 | 1011.2 |
| 20260509181550 | 61 | 290 | 0.0 | 11.0 | 0.00 | 0.08 | 0.08 | 32 | 1011.3 |
| 20260509180045 | 60 | 324 | 0.0 | 7.0 | 0.00 | 0.08 | 0.08 | 50 | 1011.5 |
| 20260509174547 | 61 | 28 | 0.0 | 3.0 | 0.00 | 0.08 | 0.08 | 51 | 1011.5 |
| 20260509173045 | 62 | 29 | 0.0 | 4.0 | 0.00 | 0.08 | 0.08 | 50 | 1011.3 |
| 20260509171544 | 61 | 55 | 0.0 | 4.0 | 0.00 | 0.08 | 0.08 | 50 | 1011.4 |
| 20260509170043 | 61 | 134 | 0.0 | 6.0 | 0.00 | 0.08 | 0.08 | 53 | 1011.4 |
| 20260509164549 | 59 | 161 | 0.0 | 2.0 | 0.00 | 0.08 | 0.08 | 58 | 1011.4 |
| 20260509163040 | 58 | 126 | 0.0 | 9.0 | 0.00 | 0.08 | 0.08 | 59 | 1011.1 |
| 20260509161540 | 56 | 115 | 0.0 | 3.0 | 0.00 | 0.08 | 0.08 | 64 | 1011.1 |
| 20260509160029 | 57 | 267 | 0.0 | 0.0 | 0.00 | 0.08 | 0.08 | 65 | 1010.7 |
| 20260509154528 | 57 | 260 | 0.0 | 6.0 | 0.00 | 0.08 | 0.08 | 64 | 1011.1 |
| 20260509153027 | 58 | 274 | 1.0 | 9.0 | 0.00 | 0.08 | 0.08 | 62 | 1011.2 |
| 20260509151525 | 58 | 325 | 0.0 | 13.0 | 0.00 | 0.08 | 0.08 | 63 | 1010.8 |
| 20260509150024 | 58 | 329 | 1.0 | 9.0 | 0.00 | 0.08 | 0.08 | 64 | 1010.7 |
| 20260509144531 | 58 | 324 | 2.0 | 11.0 | 0.00 | 0.08 | 0.08 | 64 | 1010.5 |
| 20260509143023 | 57 | 315 | 0.0 | 13.0 | 0.00 | 0.08 | 0.08 | 71 | 1010.6 |
| 20260509141522 | 55 | 311 | 0.0 | 3.0 | 0.00 | 0.08 | 0.08 | 77 | 1010.7 |
| 20260509140009 | 53 | 288 | 0.0 | 1.0 | 0.00 | 0.08 | 0.08 | 83 | 1010.7 |
| 20260509134509 | 51 | 341 | 0.0 | 1.0 | 0.00 | 0.08 | 0.08 | 88 | 1010.6 |
| 20260509133012 | 51 | 261 | 0.0 | 0.0 | 0.00 | 0.08 | 0.08 | 89 | 1010.6 |
| 20260509131507 | 51 | 261 | 0.0 | 0.0 | 0.00 | 0.08 | 0.08 | 88 | 1010.3 |
| 20260509130005 | 51 | 266 | 0.0 | 0.0 | 0.00 | 0.08 | 0.08 | 88 | 1010.0 |
| 20260509124504 | 50 | 265 | 0.0 | 6.0 | 0.00 | 0.08 | 0.08 | 88 | 1010.0 |
| 20260509123006 | 50 | 239 | 0.0 | 5.0 | 0.00 | 0.08 | 0.08 | 89 | 1009.8 |
| 20260509121600 | 50 | 229 | 0.0 | 0.0 | 0.00 | 0.08 | 0.08 | 88 | 1009.8 |
| 20260509120041 | 51 | 229 | 0.0 | 0.0 | 0.00 | 0.08 | 0.08 | 87 | 1009.5 |
| 20260509114541 | 51 | 235 | 0.0 | 0.0 | 0.01 | 0.08 | 0.08 | 87 | 1009.2 |
| 20260509113020 | 51 | 240 | 0.0 | 0.0 | 0.02 | 0.08 | 0.08 | 86 | 1009.4 |